When you browse on this site, cookies collect data to enhance your experience and personalize the content and advertising you see.
Visit our Privacy Policy to learn more. By continuing to use the site, you agree to this use of cookies and data.
  • In Slovakia
  • List of Countries
  • For 7 days
  • Water Temperature
  • Weather Map
  • Weather Widgets
  • user-avatar
    Login

    Hourly Weather Lubango

    Today, 18 September, Wednesday

    Time Temperature Precipitation Wind Pressure Humidity
    00:00 +14°C° 0 mm 1 mps 608 mmHg 66%
    01:00 +14°C° 0 mm 1 mps 607 mmHg 63%
    02:00 +14°C° 0 mm 1 mps 607 mmHg 60%
    03:00 +14°C° 0 mm 1 mps 608 mmHg 57%
    04:00 +14°C° 0 mm 2 mps 608 mmHg 53%
    05:00 +15°C° 0 mm 2 mps 608 mmHg 49%
    06:00 +16°C° 0 mm 2 mps 609 mmHg 44%
    07:00 +18°C° 0 mm 1 mps 610 mmHg 39%
    08:00 +21°C° 0 mm 3 mps 611 mmHg 30%
    09:00 +25°C° 0 mm 4 mps 612 mmHg 21%
    10:00 +28°C° 0 mm 5 mps 613 mmHg 13%
    11:00 +30°C° 0 mm 5 mps 613 mmHg 12%
    12:00 +32°C° 0 mm 4 mps 612 mmHg 11%
    13:00 +33°C° 0 mm 3 mps 612 mmHg 10%
    14:00 +32°C° 0 mm 4 mps 611 mmHg 11%
    15:00 +32°C° 0 mm 4 mps 611 mmHg 12%
    16:00 +32°C° 0 mm 4 mps 610 mmHg 12%
    17:00 +26°C° 0 mm 3 mps 609 mmHg 28%
    18:00 +21°C° 0 mm 2 mps 608 mmHg 44%
    19:00 +17°C° 0 mm 2 mps 607 mmHg 59%
    20:00 +16°C° 0 mm 1 mps 607 mmHg 63%
    21:00 +15°C° 0 mm 1 mps 608 mmHg 66%
    22:00 +14°C° 0 mm 1 mps 608 mmHg 70%
    23:00 +14°C° 0 mm 1 mps 608 mmHg 63%

    Tomorrow, 19 September, Thursday

    Time Temperature Precipitation Wind Pressure Humidity
    00:00 +15°C° 0 mm 1 mps 608 mmHg 57%
    01:00 +15°C° 0 mm 1 mps 608 mmHg 50%
    02:00 +15°C° 0 mm 1 mps 608 mmHg 48%
    03:00 +15°C° 0 mm 1 mps 608 mmHg 45%
    04:00 +15°C° 0 mm 2 mps 608 mmHg 43%
    05:00 +16°C° 0 mm 2 mps 608 mmHg 40%
    06:00 +17°C° 0 mm 2 mps 609 mmHg 36%
    07:00 +18°C° 0 mm 2 mps 610 mmHg 33%
    08:00 +21°C° 0 mm 3 mps 611 mmHg 27%
    09:00 +26°C° 0 mm 4 mps 612 mmHg 20%
    10:00 +29°C° 0 mm 5 mps 613 mmHg 14%
    11:00 +30°C° 0 mm 5 mps 612 mmHg 14%
    12:00 +32°C° 0 mm 4 mps 612 mmHg 13%
    13:00 +34°C° 0 mm 4 mps 612 mmHg 13%
    14:00 +32°C° 0 mm 4 mps 611 mmHg 17%
    15:00 +30°C° 0 mm 3 mps 610 mmHg 21%
    16:00 +29°C° 0 mm 3 mps 610 mmHg 24%
    17:00 +25°C° 0 mm 3 mps 609 mmHg 40%
    18:00 +19°C° 0 mm 2 mps 608 mmHg 56%
    19:00 +15°C° 0 mm 2 mps 607 mmHg 72%
    20:00 +15°C° 0 mm 1 mps 607 mmHg 70%
    21:00 +15°C° 0 mm 1 mps 608 mmHg 68%
    22:00 +15°C° 0 mm 1 mps 608 mmHg 66%
    23:00 +14°C° 0 mm 1 mps 608 mmHg 65%

    Day after tomorrow, 20 September, Friday

    Time Temperature Precipitation Wind Pressure Humidity
    00:00 +14°C° 0 mm 1 mps 608 mmHg 63%
    01:00 +14°C° 0 mm 1 mps 608 mmHg 61%
    02:00 +14°C° 0 mm 1 mps 608 mmHg 60%
    03:00 +14°C° 0 mm 1 mps 607 mmHg 58%
    04:00 +14°C° 0 mm 1 mps 607 mmHg 57%
    05:00 +15°C° 0 mm 1 mps 608 mmHg 51%
    06:00 +16°C° 0 mm 1 mps 609 mmHg 45%
    07:00 +18°C° 0 mm 1 mps 610 mmHg 39%
    08:00 +20°C° 0 mm 2 mps 611 mmHg 33%
    09:00 +24°C° 0 mm 2 mps 612 mmHg 27%
    10:00 +28°C° 0 mm 3 mps 613 mmHg 21%
    11:00 +29°C° 0 mm 3 mps 612 mmHg 20%
    12:00 +30°C° 0 mm 3 mps 612 mmHg 19%
    13:00 +30°C° 0 mm 3 mps 611 mmHg 19%
    14:00 +30°C° 0 mm 3 mps 611 mmHg 21%
    15:00 +29°C° 0 mm 3 mps 610 mmHg 23%
    16:00 +28°C° 0 mm 3 mps 609 mmHg 26%
    17:00 +24°C° 0 mm 3 mps 609 mmHg 38%
    18:00 +20°C° 0 mm 2 mps 608 mmHg 51%
    19:00 +16°C° 0 mm 1 mps 607 mmHg 64%
    20:00 +15°C° 0 mm 1 mps 607 mmHg 65%
    21:00 +15°C° 0 mm 1 mps 607 mmHg 66%
    22:00 +14°C° 0 mm 1 mps 608 mmHg 68%
    23:00 +14°C° 0 mm 1 mps 607 mmHg 66%

    21 September, Saturday

    Time Temperature Precipitation Wind Pressure Humidity
    00:00 +14°C° 0 mm 1 mps 607 mmHg 65%
    01:00 +14°C° 0 mm 1 mps 607 mmHg 64%
    02:00 +14°C° 0 mm 1 mps 607 mmHg 63%
    03:00 +14°C° 0 mm 1 mps 607 mmHg 61%
    04:00 +13°C° 0 mm 0 mps 607 mmHg 59%
    05:00 +14°C° 0 mm 0 mps 607 mmHg 55%
    06:00 +15°C° 0 mm 0 mps 608 mmHg 50%
    07:00 +16°C° 0 mm 0 mps 609 mmHg 46%
    08:00 +21°C° 0 mm 1 mps 610 mmHg 37%
    09:00 +25°C° 0 mm 2 mps 611 mmHg 28%
    10:00 +28°C° 0 mm 2 mps 612 mmHg 20%
    11:00 +29°C° 0 mm 2 mps 612 mmHg 20%
    12:00 +30°C° 0 mm 3 mps 611 mmHg 20%
    13:00 +31°C° 0 mm 3 mps 611 mmHg 19%
    14:00 +30°C° 0 mm 3 mps 610 mmHg 21%
    15:00 +29°C° 0 mm 3 mps 610 mmHg 23%
    16:00 +29°C° 0 mm 3 mps 609 mmHg 25%
    17:00 +25°C° 0 mm 3 mps 609 mmHg 35%
    18:00 +21°C° 0 mm 2 mps 608 mmHg 46%
    19:00 +18°C° 0 mm 1 mps 607 mmHg 56%
    20:00 +16°C° 0 mm 1 mps 607 mmHg 58%
    21:00 +16°C° 0 mm 1 mps 607 mmHg 60%
    22:00 +15°C° 0 mm 1 mps 607 mmHg 61%
    23:00 +15°C° 0 mm 1 mps 607 mmHg 59%

    22 September, Sunday

    Time Temperature Precipitation Wind Pressure Humidity
    00:00 +15°C° 0 mm 1 mps 607 mmHg 57%
    01:00 +15°C° 0 mm 1 mps 607 mmHg 55%
    02:00 +15°C° 0 mm 1 mps 607 mmHg 54%
    03:00 +15°C° 0 mm 1 mps 607 mmHg 54%
    04:00 +15°C° 0 mm 1 mps 607 mmHg 53%
    05:00 +16°C° 0 mm 1 mps 608 mmHg 46%
    06:00 +19°C° 0 mm 1 mps 609 mmHg 39%
    07:00 +20°C° 0 mm 1 mps 610 mmHg 31%
    08:00 +23°C° 0 mm 2 mps 611 mmHg 27%
    09:00 +26°C° 0 mm 2 mps 612 mmHg 22%
    10:00 +29°C° 0 mm 3 mps 613 mmHg 17%
    11:00 +30°C° 0 mm 3 mps 612 mmHg 16%
    12:00 +31°C° 0 mm 3 mps 612 mmHg 16%
    13:00 +33°C° 0 mm 3 mps 612 mmHg 15%
    14:00 +31°C° 0 mm 3 mps 611 mmHg 17%
    15:00 +30°C° 0 mm 4 mps 610 mmHg 19%
    16:00 +29°C° 0 mm 4 mps 610 mmHg 21%
    17:00 +25°C° 0 mm 3 mps 609 mmHg 33%
    18:00 +20°C° 0 mm 3 mps 608 mmHg 44%
    19:00 +16°C° 0 mm 2 mps 607 mmHg 56%
    20:00 +16°C° 0 mm 1 mps 607 mmHg 57%
    21:00 +15°C° 0 mm 1 mps 607 mmHg 58%
    22:00 +14°C° 0 mm 1 mps 608 mmHg 60%
    23:00 +15°C° 0 mm 1 mps 608 mmHg 55%

    23 September, Monday

    Time Temperature Precipitation Wind Pressure Humidity
    00:00 +15°C° 0 mm 1 mps 608 mmHg 50%
    01:00 +15°C° 0 mm 1 mps 608 mmHg 45%
    02:00 +15°C° 0 mm 1 mps 608 mmHg 43%
    03:00 +15°C° 0 mm 1 mps 608 mmHg 41%
    04:00 +14°C° 0 mm 1 mps 608 mmHg 39%
    05:00 +16°C° 0 mm 2 mps 609 mmHg 36%
    06:00 +17°C° 0 mm 2 mps 609 mmHg 32%
    07:00 +19°C° 0 mm 2 mps 610 mmHg 28%
    08:00 +22°C° 0 mm 3 mps 611 mmHg 23%
    09:00 +26°C° 0 mm 4 mps 612 mmHg 19%
    10:00 +29°C° 0 mm 5 mps 613 mmHg 14%
    11:00 +30°C° 0 mm 5 mps 613 mmHg 13%
    12:00 +32°C° 0 mm 4 mps 612 mmHg 12%
    13:00 +33°C° 0 mm 3 mps 612 mmHg 11%
    14:00 +32°C° 0 mm 4 mps 611 mmHg 13%
    15:00 +30°C° 0 mm 4 mps 611 mmHg 16%
    16:00 +30°C° 0 mm 4 mps 610 mmHg 18%
    17:00 +25°C° 0 mm 3 mps 609 mmHg 33%
    18:00 +20°C° 0 mm 2 mps 608 mmHg 48%
    19:00 +16°C° 0 mm 1 mps 607 mmHg 63%
    20:00 +15°C° 0 mm 1 mps 607 mmHg 61%
    21:00 +15°C° 0 mm 1 mps 607 mmHg 59%
    22:00 +15°C° 0 mm 1 mps 608 mmHg 57%
    23:00 +15°C° 0 mm 1 mps 608 mmHg 51%
    Show more